Back to catalog

STARLINK-37047

AliveCommunicationsVLEO
NORAD 68957·PAYLOAD·🇺🇸 United States

Launched May 1, 2026 from Cape Canaveral Space Force Station

Loading…

Next Passes (next 24 hours)

TLE

FreshSource: CelesTrak SupGP

Epoch: Sep 14, 2026, 22:29 UTC

1 68957C 26099G   26257.93729167 -.00008334  00000+0 -24628-3 0  2578
2 68957  53.1576 101.9417 0001261  84.4681  93.9095 15.34388938    16

Track STARLINK-37047 in real time with AllMySat

Download on the App Store